ウィルタネン彗星

46P/Wirtanen (2002)

English version
Home page
Updated on January 24, 2003

---------------------------------------------------------------------

・ プロフィール

・ 軌道要素

Epoch 2002 Sept. 3.0 TT = JDT 2452520.5
T 2002 Aug. 26.74628 TT                                 MPC
q   1.0587602            (2000.0)            P               Q
n   0.18107117     Peri.  356.39842     +0.19682227     -0.95950035
a   3.0943529      Node    82.17432     +0.90454239     +0.09840414
e   0.6578412      Incl.   11.73813     +0.37823810     +0.26396157
P   5.44
From 252 observations 1995 June 26-2002 June 23, mean residual 0".61.  Non-
   gravitational parameters A1 = +0.23 +/- 0.03, A2 = -0.1892 +/- 0.0097.

・ 星図

・ 光度変化

        m1 = 14.5 + 5 logΔ +  8.0 log r  [   ,-60]  (              〜2002年 6月27日)
        m1 =  7.3 + 5 logΔ + 70   log r  [-60, 29]  (2002年 6月27日〜2002年 9月24日)
        m1 =  3.6 + 5 logΔ + 70   log r  [ 29, 55]  (2002年 9月24日〜2002年10月20日)
        m1 =  8.4 + 5 logΔ + 25.0 log r  [ 55,   ]  (2002年10月20日〜              )

---------------------------------------------------------------------

軌道要素は Dr. Brian G. Marsden の計算によるもので、 M.P.E.C. 2002-M33 に掲載されたものです。
星図は StellaNavigator Ver.2.0 for Windows (アストロアーツ 編著 / アスキー出版局刊) で作成したものです。
光度グラフはComet for Windowsで作成したものです。

---------------------------------------------------------------------

Copyright(C) Seiichi Yoshida (comet@aerith.net). All rights reserved.